Regional Weather Roundup
Issued by NWS Columbia, SC

Home | Current Version | Previous Version | Text Only | Print | Product List | Glossary On
Versions: 1 2 3 4 5 6 7 8 9 10 11 12 13 14 15 16 17 18 19 20 21 22 23 24 25 26 27
000
ASUS42 KCAE 241210
RWRCAE
REGIONAL WEATHER ROUNDUP
NATIONAL WEATHER SERVICE COLUMBIA SC
800 AM EDT SAT JUN 24 2017

NOTE: "FAIR" INDICATES FEW OR NO CLOUDS BELOW 12,000 FEET WITH NO
SIGNIFICANT WEATHER AND/OR OBSTRUCTIONS TO VISIBILITY.

NOT ALL STATIONS ARE QUALITY CONTROLLED BY THE NATIONAL
WEATHER SERVICE. USE DATA WITH CAUTION...ESPECIALLY
DEWPOINT OBSERVATIONS.

SCZ001>056-GAZ040-063>065-077-241300-
...UPSTATE SOUTH CAROLINA...

CITY           SKY/WX    TMP DP  RH WIND       PRES   REMARKS
ANDERSON       CLOUDY    75  71  87 SW9       29.97R
6HR MIN TEMP:  75; 6HR MAX TEMP:  75; 6HR PCP: TRACE;

LIBERTY        CLOUDY    73  72  96 W5        29.96R
6HR MIN TEMP:  72; 6HR MAX TEMP:  73;

SPARTANBURG    CLOUDY    73  70  88 SW5       29.97R
CLEMSON        CLOUDY    74  74 100 W8        29.97S
6HR MIN TEMP:  72; 6HR MAX TEMP:  74;

GREENVILLE     CLOUDY    76  71  85 SW8       29.97R
6HR MIN TEMP:  74; 6HR MAX TEMP:  76;

GREENWOOD      CLOUDY    74  69  85 W9        29.99R
6HR MIN TEMP:  73; 6HR MAX TEMP:  77;

GREER          CLOUDY    74  70  87 SW7       29.96R
6HR MIN TEMP:  72; 6HR MAX TEMP:  74; 6HR PCP: TRACE;

ROCK HILL      CLOUDY    75  71  87 SW6       29.97R
6HR MIN TEMP:  74; 6HR MAX TEMP:  77;

CHESTER        CLOUDY    73  70  88 CALM      29.98R


...CENTRAL SOUTH CAROLINA...

CITY           SKY/WX    TMP DP  RH WIND       PRES   REMARKS
COLUMBIA APT   PTSUNNY   80  73  79 SW8       29.96R
6HR MIN TEMP:  78; 6HR MAX TEMP:  81;

COLUMBIA OWENS PTSUNNY   80  75  84 SW5       29.98R
6HR MIN TEMP:  78; 6HR MAX TEMP:  81;

MCENTIRE ANGB  MOSUNNY   79  74  84 SW9       29.97R
6HR MIN TEMP:  76; 6HR MAX TEMP:  79;

ORANGEBURG     SUNNY     78  74  87 SW9       29.99R
6HR MIN TEMP:  75; 6HR MAX TEMP:  78;

SUMTER SHAW    SUNNY     79  73  81 SW13      29.95R
6HR MIN TEMP:  77; 6HR MAX TEMP:  79;

NEWBERRY       MOSUNNY   77  70  78 SW8       30.00R
AIKEN          FAIR      77  72  83 SW9       30.01S
BARNWELL       FAIR      79  75  89 SW8       29.99S
CAMDEN         FAIR      79  73  83 S8        29.97R
LANCASTER      MOSUNNY   77  73  88 SW8       29.97R
WINNSBORO      MOSUNNY   77  72  83 SW7       29.97R


...EASTERN AND COASTAL SOUTH CAROLINA...

CITY           SKY/WX    TMP DP  RH WIND       PRES   REMARKS
MYRTLE BEACH   SUNNY     79  75  89 W9        29.98R
N MYRTLE BCH   MOSUNNY   82  76  81 SW10      29.97R
6HR MIN TEMP:  79; 6HR MAX TEMP:  82;

CONWAY         FAIR      79  73  83 SW7       29.97S FOG
MARION         FAIR      77  72  83 SW8       29.96R
FLORENCE       SUNNY     80  75  84 SW13G22   29.96R
6HR MIN TEMP:  77; 6HR MAX TEMP:  80;

DARLINGTON     PTSUNNY   79  75  87 SW10      29.96R
6HR MIN TEMP:  77; 6HR MAX TEMP:  79;

CHARLESTON APT MOSUNNY   81  73  76 SW10      29.99R
6HR MIN TEMP:  79; 6HR MAX TEMP:  81;

MOUNT PLEASANT FAIR      82  75  78 SW9       29.99S
WALTERBORO     SUNNY     77  73  88 SW8       30.01R
BEAUFORT       SUNNY     81  76  84 SW12      30.01R
6HR MIN TEMP:  78; 6HR MAX TEMP:  81;



...EASTERN GEORGIA...

CITY           SKY/WX    TMP DP  RH WIND       PRES   REMARKS
AUGUSTA BUSH F SUNNY     80  74  81 SW9       29.98R
6HR MIN TEMP:  76; 6HR MAX TEMP:  82;

AUGUSTA DANIEL MOSUNNY   79  71  76 VRB5      29.99S
6HR MIN TEMP:  77; 6HR MAX TEMP:  82;

THOMSON        MOSUNNY   77  71  83 NW9       30.04R
6HR MIN TEMP:  73; 6HR MAX TEMP:  79;

WASHINGTON     FAIR      77  73  88 W6        30.00R
CLAXTON        FAIR      76  73  92 CALM      30.01S
6HR MIN TEMP:  73; 6HR MAX TEMP:  76;

SYLVANIA       SUNNY     78  76  94 W3        30.02R
6HR MIN TEMP:  75; 6HR MAX TEMP:  78;

STATESBORO     SUNNY     79  79 100 CALM      30.01R
6HR MIN TEMP:  76; 6HR MAX TEMP:  79;

SAVANNAH       MOSUNNY   79  72  79 S10       30.02R
6HR MIN TEMP:  76; 6HR MAX TEMP:  79;



...SOUTHERN NORTH CAROLINA...

CITY           SKY/WX    TMP DP  RH WIND       PRES   REMARKS
CHARLOTTE      PTSUNNY   75  70  84 SW7       29.96R
6HR MIN TEMP:  73; 6HR MAX TEMP:  76; 6HR PCP: TRACE;

MONROE         CLOUDY    76  70  82 SW7       29.96R
6HR MIN TEMP:  76; 6HR MAX TEMP:  79; 6HR PCP: TRACE;

WADESBORO      MOSUNNY   78  73  83 CALM      29.94R
ROCKINGHAM     MOSUNNY   78  75  91 SW9G17    29.94R
ASHEVILLE      SUNNY     71  64  78 VRB5      30.02R
6HR MIN TEMP:  67; 6HR MAX TEMP:  71;


$$




USA.gov is the U.S. government's official web portal to all federal, state and local government web resources and services.